OK2ILA-3 Weather Reports


Display with metric or nautical units.
time (UTC)temp
F
wind
direction
speed
MPH
gust
MPH
rain 1hr
in
rain 24hr
in
rain mn
in
humidity
%
barometer
mb
20260507161013 64 130 0.0 0.0 0.00 0.00 0.00 3 5738.5
20260507160009 65 163 0.0 0.0 0.00 0.00 0.00 88 5738.5
20260507155003 66 226 0.0 0.0 0.00 0.00 0.00 2 5738.5
20260507153959 66 126 2.0 0.0 0.00 0.00 0.00 4 5738.5
20260507152956 66 188 3.0 0.0 0.00 0.00 0.00 1 5738.5
20260507151947 66 12 1.0 0.0 0.00 0.00 0.00 2 5738.5
20260507151351 65 57 0.0 0.0 0.00 0.00 0.00 12 5738.5
20260507150943 65 57 0.0 0.0 0.00 0.00 0.00 12 5738.5
20260507145937 65 161 2.0 0.0 0.00 0.00 0.00 100 4352.0
20260507144931 66 320 0.0 0.0 0.00 0.00 0.00 3 4352.0
20260507143926 66 85 2.0 0.0 0.00 0.00 0.00 62 4352.0
20260507142922 64 171 0.0 0.0 0.00 0.00 0.00 1 4352.0
20260507141915 65 205 2.0 0.0 0.00 0.00 0.00 53 4352.0
20260507135902 67 187 0.0 0.0 0.00 0.00 0.00 11 8.1
20260507134853 66 156 1.0 0.0 0.00 0.00 0.00 53 8.1
20260507133848 66 167 1.0 0.0 0.00 0.00 0.00 1 8.1
20260507132839 67 174 1.0 0.0 0.00 0.00 0.00 1 3840.0
20260507131833 68 11 0.0 0.0 0.00 0.00 0.00 1 3840.0
20260507130826 66 175 1.0 0.0 0.00 0.00 0.00 11 3840.0
20260507125821 66 208 3.0 0.0 0.00 0.00 0.00 55 361.6
20260507124816 66 168 0.0 0.0 0.00 0.00 0.00 1 361.6
20260507123813 66 317 0.0 0.0 0.00 0.00 0.00 3 3277.3
20260507122808 68 146 0.0 0.0 0.00 0.00 0.00 1 3690.6
20260507121804 67 108 0.0 0.0 0.00 0.00 0.00 85 3690.6
20260507120759 67 170 0.0 0.0 0.00 0.00 0.00 5 4.3
20260507115753 69 90 1.0 0.0 0.00 0.00 0.00 100 3609.8
20260507114745 68 106 1.0 0.0 0.00 0.00 0.00 3 3609.8
20260507113740 69 80 0.0 0.0 0.00 0.00 0.00 10 870.4
20260507112734 69 133 2.0 0.0 0.00 0.00 0.00 53 204.8
20260507111731 68 180 0.0 0.0 0.00 0.00 0.00 53 8.1
20260507110726 68 184 0.0 0.0 0.00 0.00 0.00 100 2048.5
20260507105719 67 102 0.0 0.0 0.00 0.00 0.00 12 2052.2
20260507104715 66 244 0.0 0.0 0.00 0.00 0.00 53 1096.0
20260507103710 69 226 0.0 0.0 0.00 0.00 0.00 79 1096.0
20260507102704 69 254 1.0 0.0 0.00 0.00 0.00 12 1096.0
20260507101700 67 74 0.0 0.0 0.00 0.00 0.00 5
20260507100655 67 149 0.0 0.0 0.00 0.00 0.00 53
20260507095648 68 172 2.0 0.0 0.00 0.00 0.00 71
20260507094641 67 258 0.0 0.0 0.00 0.00 0.00 1 460.8
20260507093637 68 178 1.0 0.0 0.00 0.00 0.00 51 460.8
20260507092631 68 226 1.0 0.0 0.00 0.00 0.00 3 4509.9
20260507091622 70 150 0.0 0.0 0.00 0.00 0.00 12
20260507090616 69 161 3.0 0.0 0.00 0.00 0.00 53
20260507085610 68 165 0.0 0.0 0.00 0.00 0.00 100
20260507084604 67 343 1.0 0.0 0.00 0.00 0.00 8
20260507083600 67 188 1.0 0.0 0.00 0.00 0.00 100
20260507082553 65 9 0.0 0.0 0.00 0.00 0.00 12 4915.7
20260507081550 64 154 0.0 0.0 0.00 0.00 0.00 25 4915.7
20260507080546 65 137 0.0 0.0 0.00 0.00 0.00 9 4915.7
20260507075539 63 205 0.0 0.0 0.00 0.00 0.00 15 4915.7
20260507074533 66 194 0.0 0.0 0.00 0.00 0.00 58 121.6
20260507073529 66 168 0.0 0.0 0.00 0.00 0.00 57 121.6
20260507072524 67 178 0.0 0.0 0.00 0.00 0.00 79 4352.0
20260507071514 66 170 0.0 0.0 0.00 0.00 0.00 5 68.2
20260507070505 65 188 0.0 0.0 0.00 0.00 0.00 12 17.0
20260507065451 62 203 0.0 0.0 0.00 0.00 0.00 2 8.1
20260507064447 61 174 0.0 0.0 0.00 0.00 0.00 100 8.1
20260507063442 60 164 0.0 0.0 0.00 0.00 0.00 1 3703.4
20260507062430 59 348 0.0 0.0 0.00 0.00 0.00 38 2461.3
20260507061422 58 172 0.0 0.0 0.00 0.00 0.00 1
20260507060410 56 174 0.0 0.0 0.00 0.00 0.00 53 5.4
20260507055358 56 208 0.0 0.0 0.00 0.00 0.00 12 5.4
20260507054350 55 223 1.0 0.0 0.00 0.00 0.00 3 5.4
20260507053327 55 158 0.0 0.0 0.00 0.00 0.00 8 5.4
20260507052308 55 203 0.0 0.0 0.00 0.00 0.00 5 4352.0
20260507051258 54 175 0.0 0.0 0.00 0.00 0.00 53 200.0
20260507050259 54 175 0.0 0.0 0.00 0.00 0.00 12 12.6
20260507045247 54 168 0.0 0.0 0.00 0.00 0.00 100 313.6
20260507044242 54 232 0.0 0.0 0.00 0.00 0.00 23 313.6
20260507043237 54 275 0.0 0.0 0.00 0.00 0.00 1 3558.6
20260507042230 54 292 0.0 0.0 0.00 0.00 0.00 100 3558.6
20260507041225 54 203 0.0 0.0 0.00 0.00 0.00 53 3558.6
20260507040221 54 199 0.0 0.0 0.00 0.00 0.00 12 3558.6
20260507035217 53 167 0.0 0.0 0.00 0.00 0.00 53
20260507034215 53 177 0.0 0.0 0.00 4.35 0.00 100
20260507033212 53 154 0.0 0.0 0.00 0.00 0.00 11
20260507032205 54 226 0.0 0.0 0.00 0.00 0.00 1
20260507031157 54 220 1.0 0.0 0.00 0.00 0.00 7 921.6
20260507030152 54 113 0.0 0.0 0.00 0.00 0.00 3 921.6
20260507025146 54 15 0.0 0.0 0.00 0.00 0.00 28 6329.0
20260507024141 54 165 3.0 0.0 0.00 0.00 0.00 100 6329.0
20260507023136 54 258 1.0 0.0 0.00 0.00 0.00 10 6329.0
20260507022129 54 192 3.0 0.0 0.00 0.00 0.00 7
20260507021124 54 8 0.0 0.0 0.00 0.00 0.00 12 54.8
20260507020120 54 119 0.0 0.0 0.00 0.00 0.00 3 137.6
20260507015111 54 160 1.0 0.0 0.00 0.00 0.00 7 137.6
20260507014109 55 191 3.0 0.0 0.00 0.00 0.00 53 137.6
20260507013106 55 227 5.0 0.0 0.00 0.00 0.00 53 137.6
20260507012057 55 146 4.0 0.0 0.00 0.00 0.00 100 1049.8
20260507011053 55 147 2.0 0.0 0.00 0.00 0.00 11 1049.8
20260507010049 55 175 4.0 0.0 0.00 0.00 0.00 30 1049.8
20260507005042 56 229 6.0 0.0 0.00 0.00 0.00 16 1049.8
20260507004035 56 268 0.0 0.0 0.00 0.00 0.00 52 1049.8
20260507003023 56 144 3.0 0.0 0.00 0.00 0.00 11 1049.8
20260507002017 55 177 1.0 0.0 0.00 0.00 0.00 13 1689.8
20260507001012 56 178 7.0 0.0 0.00 0.00 0.00 6 1689.8
20260507000009 56 160 4.0 0.0 0.00 0.00 0.00 88 1689.8
20260506235001 57 174 3.0 0.0 0.00 0.00 0.00 100 208.0
20260506233957 56 191 6.0 0.0 0.00 0.00 0.00 1 208.0
20260506232951 56 225 1.0 0.0 0.00 0.00 0.00 2 902.4
20260506231942 56 153 5.0 0.0 0.00 0.00 0.00 6 4096.3
20260506230938 56 40 0.0 0.0 0.00 0.00 0.00 53 4096.3
20260506225928 57 254 0.0 0.0 0.00 0.00 0.00 2 4096.3
20260506224920 57 8 3.0 0.0 0.00 0.00 0.00 6 4096.3
20260506223917 57 144 3.0 0.0 0.00 0.00 0.00 53 4096.0
20260506222910 57 127 0.0 0.0 0.00 0.00 0.00 100 486.4
20260506221906 58 285 0.0 0.0 0.00 0.00 0.00 1 486.4
20260506220901 58 151 6.0 0.0 0.00 0.00 0.00 100 486.4
20260506215854 58 68 0.0 0.0 0.00 0.00 0.00 100 486.4
20260506214849 58 279 3.0 0.0 0.00 0.00 0.00 61 486.4
20260506213845 58 4 0.0 0.0 0.00 0.00 0.00 40 486.4
20260506212839 58 125 1.0 0.0 0.00 0.00 0.00 3 4096.2
20260506211823 58 229 1.0 0.0 0.00 0.00 0.00 12 4096.2
20260506205807 58 185 2.0 0.0 0.00 0.00 0.00 82 4352.0
20260506204800 59 174 0.0 0.0 0.00 0.00 0.00 100 4352.0
20260506203756 59 158 1.0 0.0 0.00 0.00 0.00 3 4352.0
20260506202750 60 316 0.0 0.0 0.00 0.00 0.00 100 102.4
20260506201740 60 337 0.0 0.0 0.00 0.00 0.00 28 102.4
20260506200735 61 133 3.0 0.0 0.00 0.00 0.00 79 2483.2
20260506195729 61 115 1.0 0.0 0.00 0.00 0.00 100 113.0
20260506194721 61 222 2.0 0.0 0.00 0.00 0.00 28 2892.8
20260506192709 62 229 3.0 0.0 0.00 0.00 0.00 60 2892.8
20260506191704 62 104 6.0 0.0 0.00 0.00 0.00 100 8.1
20260506190657 62 171 3.0 0.0 0.00 0.00 0.00 33 8.1
20260506185649 62 167 4.0 0.0 0.00 0.00 0.00 28 3687.7
20260506184644 62 129 0.0 0.0 0.00 0.00 0.00 100 3456.2
20260506183639 63 189 3.0 0.0 0.00 0.00 0.00 52 3456.2
20260506182631 63 225 2.0 0.0 0.00 0.00 0.00 59 1126.4
20260506181625 63 212 2.0 0.0 0.00 0.00 0.00 28 7.0
20260506180615 63 147 3.0 0.0 0.00 0.00 0.00 6 3052.2
20260506175608 63 219 1.0 0.0 0.00 0.00 0.00 28 4352.0
20260506174600 64 151 1.0 0.0 0.00 0.00 0.00 55 4352.0
20260506173558 65 210 4.0 0.0 0.00 0.00 0.00 51
20260506172551 65 170 2.0 0.0 0.00 0.00 0.00 28
20260506171546 65 170 2.0 0.0 0.00 0.00 0.00 12
20260506170541 65 87 3.0 0.0 0.00 0.00 0.00 13
20260506165533 65 132 5.0 0.0 0.00 0.00 0.00 100
20260506164526 66 212 4.0 0.0 0.00 0.00 0.00 28 768.0
20260506162504 67 210 0.0 0.0 0.00 0.00 0.00 100 204.8